Preview of NWS' New Version of Forecast
This preview is not operational and should not be used for support decisions.

Regional Weather Roundup (RWR)

Issued by National Weather Service (NWS)

                            
000
ASUS43 KBIS 180310
RWRND 

NORTH DAKOTA REGIONAL WEATHER ROUNDUP
NATIONAL WEATHER SERVICE BISMARCK ND
1000 PM CDT WED APR 17 2019

NOTE: "FAIR" INDICATES FEW OR NO CLOUDS BELOW 12,000 FEET WITH NO
SIGNIFICANT WEATHER AND/OR OBSTRUCTIONS TO VISIBILITY.


NDZ001>003-009>011-017-180400-
NORTHWEST NORTH DAKOTA
  
CITY           SKY/WX    TMP DP  RH WIND       PRES   REMARKS
WILLISTON      PTCLDY    43  34  70 NW8       29.85R                  
MINOT          CLEAR     41  38  89 CALM      29.86R FOG              
MINOT AFB      FOG       38  38  99 CALM      29.85R VSB 3/8          
$$
 
NDZ018>021-031>035-040>046-180400-
SOUTHWEST NORTH DAKOTA
  
CITY           SKY/WX    TMP DP  RH WIND       PRES   REMARKS
BISMARCK       PTCLDY    39  38  96 CALM      29.86R FOG              
DICKINSON      PTCLDY    36  32  85 W9        29.84R                  
GARRISON         N/A     39  38  96 CALM      29.85R                  
HETTINGER ARPT PTCLDY    36  32  85 CALM      29.89R                  
$$
 
NDZ004>008-012>016-024-026-027-054-180400-
NORTHEAST NORTH DAKOTA
  
CITY           SKY/WX    TMP DP  RH WIND       PRES   REMARKS
GRAND FORKS    CLOUDY    42  39  89 N5        29.85R                  
GRND FRKS AFB  MOCLDY    42  42 100 NW3       29.85R                  
DEVILS LAKE    LGT RAIN  40  39  97 N5        29.87R                  
$$
 
NDZ022-023-025-028>030-036>039-047>053-180400-
SOUTHEAST NORTH DAKOTA
  
CITY           SKY/WX    TMP DP  RH WIND       PRES   REMARKS
FARGO          LGT RAIN  44  43  96 N6        29.83R                  
JAMESTOWN      CLOUDY    42  42 100 NW5       29.84R                  
$$